KBBP

Details ICAO KBBP
Name MARLBORO CO JETPORT H E AVENT
Region United States
Timezone America/New_York (UTC-4.0)
Plans Departing 0
Arriving 1
Stats Elevation 147 ft / 45 m (AMSL)
Location 34.621708° -79.734358°
Runways 1
Magnetic Variation 8.393° W
Sunrise 2018-05-21 10:13:35 UTC / 2018-05-21 06:13:35 Local
Sunset 2018-05-22 00:20:21 UTC / 2018-05-21 20:20:21 Local
Advertisement - Login to hide

Runways

ID Width Length Bearing (true) Bearing (mag) Surface Threshold Offset Overrun Length
06 75 ft / 23 m 4,998 ft / 1,523 m 56.88° 65.27° Asphalt 0 ft / 0 m 0 ft / 0 m
24 75 ft / 23 m 4,998 ft / 1,523 m 236.89° 245.28° Asphalt 0 ft / 0 m 0 ft / 0 m

Map

Weather


0- 5 10 15 20 25 30 35+ Temperature / ° C

Clouds and Precipitation
Forecast for 2018-05-21 06:00 UTC. Updated 3 hours ago

Ground ~20,000 ft ~40,000 ft Winds

METAR

KBBP 210735Z AUTO 00000KT 10SM SCT015 23/23 A3012 RMK AO2

TAF

Not found

Frequencies

Recorded 123.82 MHz AWOS 3
Approach 118.60 MHz FLORENCE APP/DEP
Unicom 122.80 MHz CTAF/UNICOM
Warning: Do not use this data for real-world aviation or navigation. No guarantee of current accuracy is given.